Regional Weather Roundup
Issued by NWS Upton, NY

Current Version | Previous Version | Graphics & Text | Print | Product List | Glossary Off
Versions: 1 2 3 4 5 6 7 8 9 10 11 12 13 14 15 16 17 18 19 20 21 22 23 24 25 26 27 28 29 30 31 32 33 34 35 36 37 38 39 40 41 42 43 44 45 46 47 48 49 50

000
ASUS41 KOKX 270505
RWROKX

REGIONAL WEATHER ROUNDUP
NATIONAL WEATHER SERVICE NEW YORK NY
1200 AM EST SAT DEC 27 2014

NOTE: "FAIR" INDICATES FEW OR NO CLOUDS BELOW 12,000 FEET WITH NO
SIGNIFICANT WEATHER AND/OR OBSTRUCTIONS TO VISIBILITY.

NYZ071-072-176-178-NJZ106-104-270600-
NEW YORK CITY METRO AREA


CITY           SKY/WX    TMP DP  RH WIND       PRES   REMARKS
CENTRAL PARK   PTCLDY    44  28  53 W7        30.23F
LAGUARDIA APRT PTCLDY    45  29  53 SW8       30.21S
KENNEDY INTL   PTCLDY    40  32  73 SW10      30.22F WCI  33
NEWARK/LIBERTY PTCLDY    39  30  70 SW5       30.23S
BRNX BOT. GARD   N/A    N/A N/A N/A NW5       30.23S
TETERBORO      PTCLDY    35  28  75 CALM      30.21S
$$

NYZ177-179-078>081-270600-
LONG ISLAND NEW YORK

CITY           SKY/WX    TMP DP  RH WIND       PRES   REMARKS
FARMINGDALE    CLEAR     37  30  75 W8        30.20F WCI  31
ISLIP          PTCLDY    33  27  78 CALM      30.18F
SHIRLEY        CLEAR     37  29  72 W6        30.20F WCI  32
WESTHAMPTON    CLEAR     23  19  85 CALM      30.21F
MONTAUK POINT    N/A     44  33  65 W5        30.20F
$$

NYZ052-065-067-270600-
HUDSON VALLEY

CITY           SKY/WX    TMP DP  RH WIND       PRES   REMARKS
WHITE PLAINS   CLEAR     37  28  70 W5        30.18F WCI  33
NEWBURGH       CLEAR     34  28  80 W10       30.19F WCI  26
MONTGOMERY     CLEAR     28  26  92 SW5       30.18F WCI  23
POUGHKEEPSIE   CLEAR     28  25  88 CALM      30.18F
ALBANY         PTCLDY    28  25  88 CALM      30.17S
$$

NJZ001-105-106-008-010-013-015-019>022-104-270600-
NEW JERSEY

CITY           SKY/WX    TMP DP  RH WIND       PRES   REMARKS
NEWARK/LIBERTY PTCLDY    39  30  70 SW5       30.23S
TETERBORO      PTCLDY    35  28  75 CALM      30.21S
CALDWELL       PTCLDY    33  29  85 CALM      30.22S
MORRISTOWN     PTCLDY    32  28  86 CALM      30.22S
SOMERVILLE     CLEAR     29  25  85 CALM      30.22S
SUSSEX         PTCLDY    29  26  89 CALM      30.20F
ANDOVER        NOT AVBL
TRENTON        CLEAR     38  29  70 W3        30.22F
MILLVILLE      CLEAR     28  27  96 CALM      30.25F
ATLANTIC CITY  CLEAR     38  32  79 SW5       30.25F WCI  34
WRIGHTSTOWN    CLEAR     36  32  87 W3        30.21F
TOMS RIVER     CLEAR     28  25  86 CALM      30.22F
BELMAR         CLEAR     36  27  69 W3        30.22F
$$

PAZ047>061-062-071-270600-
EASTERN PENNSYLVANIA

CITY           SKY/WX    TMP DP  RH WIND       PRES   REMARKS
PHILADELPHIA   PTCLDY    37  31  78 CALM      30.25F
ALLENTOWN      CLEAR     30  26  85 CALM      30.23F
SCRANTON       PTCLDY    35  27  72 S3        30.19S
$$

CTZ002-004>006-009-010-012-RIZ004-006-007-MAZ004-011-015-270600-
SOUTHERN NEW ENGLAND
 IN CT

CITY           SKY/WX    TMP DP  RH WIND       PRES   REMARKS
BRADLEY INTL   PTCLDY    31  26  82 S5        30.16F WCI  26
HARTFORD       CLEAR     30  28  92 S3        30.17F
DANBURY        CLEAR     28  23  81 CALM      30.19F
WTRBRY/OXFORD  CLEAR     36  25  64 NW3       30.17F
BRIDGEPORT     CLEAR     39  32  76 SW6       30.19F WCI  35
MERIDEN        CLEAR     27  25  92 CALM      30.18F FOG
NEW HAVEN      CLEAR     35  27  72 CALM      30.18F
CHESTER        FAIR      37  32  81 CALM      30.16F
GROTON         CLEAR     29  29 100 CALM      30.18F FOG
WILLIMANTIC    CLEAR     28  24  85 CALM      30.17F

 IN RI

CITY           SKY/WX    TMP DP  RH WIND       PRES   REMARKS
PROVIDENCE     CLEAR     31  27  85 S5        30.16F WCI  26
BLOCK ISLAND   CLEAR     45  34  65 W12       30.17F
WESTERLY       CLEAR     39  32  76 W3        30.18F

 IN MA

CITY           SKY/WX    TMP DP  RH WIND       PRES   REMARKS
BOSTON         PTCLDY    41  29  62 W5        30.14F
WORCESTER      CLEAR     33  27  78 W9        30.12F WCI  25
WESTFIELD      CLEAR     26  23  88 CALM      30.16F
PROVINCETOWN   CLEAR     43  34  70 W15       30.14F
NANTUCKET      CLEAR     42  37  82 W9        30.16F
$$

ANZ330-335-338-340-345-350-353-355-270600-
COASTAL MARINE OBSERVATIONS


STATION/POSITION TIME  SKY/WX   TEMP    WIND        PRES    VSBY  WAVE
                                AIR SEA DIR/SP/G                  HT/PER
                 (UTC)          (F)     (DEG/KT/KT) (MB)    (MI)  (FT/S)
NY HARB ENTRANCE 0500            44 45  270/ 12/ 16 1023.6          2/11
4S FIRE IS       0500               47                N/A           3/ 3
20S FIRE ISLAND  0400            47 48              1024.1          3/ 4
23SW MTP         0500                                 N/A           4/ 5
HUDSON CANYON    0500            49 55  290/ 17/ 21 1023.1
EXECUTION ROCKS  0500            44 42  240/  8/ 10   N/A
WESTERN LI SOUND 0500            44     250/  6/ 10   N/A           0
CENTRAL LI SOUND 0400            44 44  270/ 12/ 16   N/A           1/ 3
EASTERN LI SOUND NOT AVBL
ROBBINS REEF     0500            41                 1022.0
$$


>>>>>>>>>>>>>>>>>>>>>>>>>>>> KEY <<<<<<<<<<<<<<<<<<<<<<<<<<<
>                                                          <
>     SKY/WX - SKY CONDITION/PRESENT WEATHER               <
>     TMP    - TEMPERATURE IN FAHRENHEIT                   <
>     DP     - DEWPOINT IN FAHRENHEIT                      <
>     RH     - RELATIVE HUMIDITY IN PERCENT                <
>     WIND   - DIRECTION AND SPEED IN MPH                  <
>     PRES   - MEAN SEA LEVEL PRESSURE IN INCHES OF HG     <
>     WCI    - WIND CHILL INDEX                            <
>     VSB    - VISIBILITY IN MILES                         <
>     HX     - HEAT INDEX                                  <
>     TC     - TEMPERATURE IN CELSIUS                      <
>     VRB    - VARIABLE WIND DIRECTION                     <
>                                                          <
>>>>>>>>>>>>>>>>>>>>>>>>>>>> KEY <<<<<<<<<<<<<<<<<<<<<<<<<<<





USA.gov is the U.S. government's official web portal to all federal, state and local government web resources and services.